Tracking 20232 objects as of 21-Jan-2020
HD Live streaming from Space Station
objects crossing your sky now

SL-8 R/B

Track SL-8 R/B now!
10-day predictions


NORAD ID: 7009
Int'l Code: 1973-109B
Perigee: 966.9 km
Apogee: 997.7 km
Inclination: 83.0 °
Period: 104.6 minutes
Semi major axis: 7353 km
RCS: 4.4533 m2 (large)
Launch date: December 29, 1973
Source: Commonwealth of Independent States (former USSR) (CIS)
Launch site: PLESETSK MISSILE AND SPACE COMPLEX (PKMTR)

Note: This is a ROCKET BODY
aabbcc
Your satellite tracking list
Your tracking list is empty




NASA's NSSDC Master Catalog

Two Line Element Set (TLE):
1  7009U 73109B   20020.89416906 +.00000010 +00000-0 -56746-5 0  9998
2  7009 082.9514 319.2407 0020929 105.4039 313.2805 13.76824748313488
Source of the keplerian elements: AFSPC